FW5884 Weather Reports


time (UTC)temp
C
wind
direction
speed
KPH
gust
KPH
rain 1hr
cm
rain 24hr
cm
rain mn
cm
humidity
%
barometer
mb
20260504215045 14 348 0.0 0.0 0.00 0.00 0.00 72 1016.5
20260504214546 14 348 0.0 0.0 0.00 0.00 0.00 71 1016.5
20260504214046 14 348 0.0 0.0 0.00 0.00 0.00 71 1016.4
20260504213547 14 348 0.0 0.0 0.00 0.00 0.00 70 1016.5
20260504213047 15 348 0.0 0.0 0.00 0.00 0.00 70 1016.4
20260504212546 15 348 0.0 0.0 0.00 0.00 0.00 70 1016.3
20260504212047 15 348 0.0 0.0 0.00 0.00 0.00 70 1016.3
20260504211547 15 348 0.0 0.0 0.00 0.00 0.00 69 1016.3
20260504211045 15 348 0.0 0.0 0.00 0.00 0.00 69 1016.4
20260504210545 15 347 0.0 0.0 0.00 0.00 0.00 68 1016.5
20260504210049 15 347 0.0 0.0 0.00 0.00 0.00 67 1016.5
20260504205544 15 347 0.0 0.0 0.00 0.00 0.00 66 1016.5
20260504205044 16 347 0.0 0.0 0.00 0.00 0.00 66 1016.5
20260504204544 16 347 0.0 1.6 0.00 0.00 0.00 66 1016.4
20260504204044 16 347 0.0 1.6 0.00 0.00 0.00 67 1016.4
20260504203544 16 353 0.0 0.0 0.00 0.00 0.00 67 1016.4
20260504203045 16 354 0.0 0.0 0.00 0.00 0.00 68 1016.4
20260504202544 16 354 0.0 0.0 0.00 0.00 0.00 68 1016.4
20260504202046 16 354 0.0 0.0 0.00 0.00 0.00 68 1016.4
20260504201545 16 354 0.0 0.0 0.00 0.00 0.00 67 1016.5
20260504201043 16 354 0.0 0.0 0.00 0.00 0.00 68 1016.5
20260504200543 16 354 0.0 0.0 0.00 0.00 0.00 66 1016.5
20260504200043 16 354 0.0 0.0 0.00 0.00 0.00 66 1016.5
20260504195544 16 281 0.0 1.6 0.00 0.00 0.00 66 1016.4
20260504195043 17 276 0.0 1.6 0.00 0.00 0.00 66 1016.5
20260504194551 17 136 0.0 0.0 0.00 0.00 0.00 67 1016.4
20260504194043 17 136 0.0 1.6 0.00 0.00 0.00 66 1016.4
20260504193547 17 141 0.0 1.6 0.00 0.00 0.00 65 1016.4
20260504193047 17 141 0.0 0.0 0.00 0.00 0.00 63 1016.4
20260504192529 17 141 0.0 0.0 0.00 0.00 0.00 61 1016.3
20260504192030 17 141 0.0 0.0 0.00 0.00 0.00 60 1016.3
20260504191546 17 141 0.0 0.0 0.00 0.00 0.00 59 1016.3
20260504191028 17 141 0.0 0.0 0.00 0.00 0.00 58 1016.1
20260504190528 17 141 0.0 0.0 0.00 0.00 0.00 58 1016.1
20260504190028 17 141 0.0 0.0 0.00 0.00 0.00 58 1016.1
20260504185527 17 141 0.0 1.6 0.00 0.00 0.00 57 1016.0
20260504185027 17 141 0.0 1.6 0.00 0.00 0.00 57 1016.0
20260504184540 18 141 0.0 1.6 0.00 0.00 0.00 56 1016.0
20260504184027 18 141 0.0 1.6 0.00 0.00 0.00 57 1016.0
20260504183527 18 136 0.0 1.6 0.00 0.00 0.00 56 1016.0
20260504183026 18 146 0.0 0.0 0.00 0.00 0.00 57 1016.0
20260504182529 18 146 0.0 0.0 0.00 0.00 0.00 57 1015.9
20260504182026 18 145 0.0 0.0 0.00 0.00 0.00 58 1015.8
20260504181526 18 146 0.0 1.6 0.00 0.00 0.00 57 1015.8
20260504181026 18 146 0.0 1.6 0.00 0.00 0.00 56 1015.8
20260504180526 19 165 0.0 0.0 0.00 0.00 0.00 56 1015.7
20260504180032 19 165 0.0 0.0 0.00 0.00 0.00 55 1015.7
20260504175527 20 125 0.0 0.0 0.00 0.00 0.00 57 1015.7
20260504175025 20 126 0.0 0.0 0.00 0.00 0.00 56 1015.6
20260504174525 20 126 0.0 0.0 0.00 0.00 0.00 56 1015.6
20260504174025 20 153 0.0 0.0 0.00 0.00 0.00 56 1015.6
20260504173524 20 152 0.0 0.0 0.00 0.00 0.00 56 1015.6
20260504173024 20 152 0.0 0.0 0.00 0.00 0.00 56 1015.6
20260504172524 20 143 0.0 1.6 0.00 0.00 0.00 55 1015.6
20260504172024 20 146 0.0 3.2 0.00 0.00 0.00 55 1015.6
20260504171524 20 160 0.0 3.2 0.00 0.00 0.00 55 1015.5
20260504171028 21 131 0.0 3.2 0.00 0.00 0.00 56 1015.6
20260504170527 21 141 0.0 4.8 0.00 0.00 0.00 56 1015.6
20260504151014 23 114 0.0 4.8 0.00 0.00 0.00 48 1016.0
20260504150516 23 46 0.0 6.4 0.00 0.00 0.00 47 1016.0
20260504141010 24 21 1.6 9.7 0.00 0.00 0.00 46 1016.3
20260504140508 23 122 0.0 4.8 0.00 0.00 0.00 46 1016.3
20260504130501 25 283 0.0 8.0 0.00 0.00 0.00 37 1016.6
20260504110551 25 143 0.0 9.7 0.00 0.00 0.00 34 1017.2
20260504100545 25 320 0.0 6.4 0.00 0.00 0.00 35 1017.5
20260504081534 23 120 0.0 0.0 0.00 0.00 0.00 44 1017.4
20260504081034 23 120 0.0 1.6 0.00 0.00 0.00 46 1017.5
20260504080531 22 117 0.0 1.6 0.00 0.00 0.00 45 1017.4
20260504050556 10 120 0.0 0.0 0.00 0.00 0.00 79 1017.0
20260504050113 10 120 0.0 0.0 0.00 0.00 0.00 80 1017.0
20260504045556 9 120 0.0 0.0 0.00 0.00 0.00 81 1016.9
20260504045056 9 120 0.0 0.0 0.00 0.00 0.00 80 1017.0
20260504044557 9 120 0.0 0.0 0.00 0.00 0.00 80 1016.9
20260504044056 9 120 0.0 0.0 0.00 0.00 0.00 80 1016.9
20260504043600 9 120 0.0 0.0 0.00 0.00 0.00 80 1016.9
20260504043104 9 120 0.0 0.0 0.00 0.00 0.00 80 1016.9
20260504042555 9 120 0.0 0.0 0.00 0.00 0.00 80 1016.9
20260504042056 9 120 0.0 0.0 0.00 0.00 0.00 79 1016.8
20260504041555 9 120 0.0 0.0 0.00 0.00 0.00 79 1016.8
20260504041057 9 120 0.0 0.0 0.00 0.00 0.00 79 1016.7
20260504040555 9 120 0.0 0.0 0.00 0.00 0.00 79 1016.8
20260504040055 9 120 0.0 0.0 0.00 0.00 0.00 79 1016.8
20260504035554 9 120 0.0 0.0 0.00 0.00 0.00 79 1016.7
20260504035057 9 120 0.0 0.0 0.00 0.00 0.00 79 1016.9
20260504034604 9 120 0.0 0.0 0.00 0.00 0.00 79 1016.8
20260504034053 9 120 0.0 0.0 0.00 0.00 0.00 79 1016.8
20260504033558 9 120 0.0 0.0 0.00 0.00 0.00 79 1016.9
20260504033058 9 120 0.0 0.0 0.00 0.00 0.00 79 1016.9
20260504032553 9 120 0.0 0.0 0.00 0.00 0.00 79 1016.9
20260504032052 9 120 0.0 1.6 0.00 0.00 0.00 79 1016.8
20260504031605 9 120 0.0 1.6 0.00 0.00 0.00 79 1016.8
20260504031050 9 120 0.0 0.0 0.00 0.00 0.00 78 1016.9
20260504030550 10 120 0.0 0.0 0.00 0.00 0.00 78 1016.9
20260504030110 10 120 0.0 0.0 0.00 0.00 0.00 78 1016.8
20260504025549 10 120 0.0 0.0 0.00 0.00 0.00 77 1016.9
20260504025050 10 120 0.0 0.0 0.00 0.00 0.00 77 1016.8
20260504024551 10 120 0.0 0.0 0.00 0.00 0.00 77 1016.9
20260504024047 10 120 0.0 0.0 0.00 0.00 0.00 77 1016.9
20260504023546 10 120 0.0 0.0 0.00 0.00 0.00 77 1017.1
20260504023046 10 120 0.0 0.0 0.00 0.00 0.00 77 1017.1
20260504022545 10 120 0.0 0.0 0.00 0.00 0.00 76 1017.1
20260504022043 10 120 0.0 0.0 0.00 0.00 0.00 76 1017.1
20260504021544 10 120 0.0 0.0 0.00 0.00 0.00 76 1017.1
20260504021043 10 120 0.0 0.0 0.00 0.00 0.00 76 1017.1
20260504020543 10 120 0.0 0.0 0.00 0.00 0.00 76 1017.2
20260504020044 10 120 0.0 0.0 0.00 0.00 0.00 75 1017.1
20260504015542 10 120 0.0 0.0 0.00 0.00 0.00 75 1017.1
20260504015042 11 120 0.0 0.0 0.00 0.00 0.00 74 1017.2
20260504014542 11 120 0.0 0.0 0.00 0.00 0.00 73 1017.2
20260504014041 11 120 0.0 0.0 0.00 0.00 0.00 74 1017.2
20260504013541 10 120 0.0 0.0 0.00 0.00 0.00 74 1017.1
20260504013042 10 120 0.0 0.0 0.00 0.00 0.00 75 1017.2
20260504012541 10 120 0.0 0.0 0.00 0.00 0.00 75 1017.2
20260504012040 10 120 0.0 0.0 0.00 0.00 0.00 74 1017.2
20260504011539 11 120 0.0 0.0 0.00 0.00 0.00 74 1017.2
20260504011041 11 120 0.0 0.0 0.00 0.00 0.00 73 1017.1
20260504010537 11 120 0.0 0.0 0.00 0.00 0.00 73 1017.1
20260504010037 11 120 0.0 0.0 0.00 0.00 0.00 74 1017.2
20260504005537 11 118 0.0 0.0 0.00 0.00 0.00 74 1017.1
20260504005038 11 118 0.0 0.0 0.00 0.00 0.00 74 1017.2
20260504004536 11 117 0.0 0.0 0.00 0.00 0.00 73 1017.1
20260504004036 11 117 0.0 0.0 0.00 0.00 0.00 73 1017.2
20260504003538 11 117 0.0 0.0 0.00 0.00 0.00 73 1017.3
20260504003042 11 117 0.0 0.0 0.00 0.00 0.00 73 1017.2
20260504002535 11 117 0.0 0.0 0.00 0.00 0.00 72 1017.2
20260504002034 11 117 0.0 0.0 0.00 0.00 0.00 71 1017.3
20260504001535 11 116 0.0 0.0 0.00 0.00 0.00 71 1017.2
20260504001033 11 116 0.0 0.0 0.00 0.00 0.00 71 1017.2
20260504000533 12 117 0.0 0.0 0.00 0.00 0.00 72 1017.2
20260504000033 12 116 0.0 0.0 0.00 0.00 0.00 72 1017.1
20260503235533 11 116 0.0 0.0 0.00 0.00 0.00 72 1017.2
20260503235037 11 119 0.0 0.0 0.00 0.00 0.00 72 1017.2
20260503234534 11 130 0.0 0.0 0.00 0.00 0.00 73 1017.3
20260503234033 11 130 0.0 0.0 0.00 0.00 0.00 73 1017.2
20260503233534 11 130 0.0 0.0 0.00 0.00 0.00 73 1017.3
20260503233038 11 130 0.0 0.0 0.00 0.00 0.00 74 1017.3
20260503232533 11 130 0.0 0.0 0.00 0.00 0.00 74 1017.3
20260503232032 11 130 0.0 0.0 0.00 0.00 0.00 74 1017.4
20260503231531 11 130 0.0 0.0 0.00 0.00 0.00 73 1017.2
20260503231031 11 130 0.0 0.0 0.00 0.00 0.00 73 1017.3
20260503230532 11 130 0.0 0.0 0.00 0.00 0.00 73 1017.2
20260503230030 11 130 0.0 0.0 0.00 0.00 0.00 73 1017.2
20260503225529 11 130 0.0 0.0 0.00 0.00 0.00 72 1017.3
20260503225029 12 130 0.0 0.0 0.00 0.00 0.00 72 1017.2
20260503224530 12 130 0.0 0.0 0.00 0.00 0.00 72 1017.2
20260503224031 12 130 0.0 0.0 0.00 0.00 0.00 72 1017.3
20260503223528 12 130 0.0 0.0 0.00 0.00 0.00 72 1017.3
20260503223027 12 130 0.0 0.0 0.00 0.00 0.00 71 1017.2
20260503222527 12 130 0.0 0.0 0.00 0.00 0.00 71 1017.2
20260503222024 12 130 0.0 0.0 0.00 0.00 0.00 71 1017.3
20260503221524 12 130 0.0 0.0 0.00 0.00 0.00 71 1017.2
20260503221025 12 130 0.0 0.0 0.00 0.00 0.00 71 1017.1
20260503220523 12 130 0.0 0.0 0.00 0.00 0.00 70 1017.2
20260503220023 12 130 0.0 0.0 0.00 0.00 0.00 70 1017.2
20260503215520 12 130 0.0 0.0 0.00 0.00 0.00 70 1017.2